Weather Roundup
Issued by NWS

Home | Current Version | Previous Version | Text Only | Print | Product List | Glossary On
Versions: 1 2 3 4 5 6 7 8 9 10 11 12 13 14 15 16 17 18 19 20 21 22 23 24 25 26 27 28 29 30 31 32 33 34 35 36 37 38 39 40 41 42 43 44 45 46 47 48 49 50
506
NZUS93 KARX 122059
HRRWXR

CURRENT HOURLY OBSERVATIONS ACROSS
MUCH OF THE UPPER MISSISSIPPI VALLEY
NATIONAL WEATHER SERVICE LA CROSSE WI
300 PM CST FRI FEB 12 2016


...SOUTHEAST MINNESOTA...


CITY           SKY/WX    TMP DP  RH WIND       PRES   REMARKS
ROCHESTER      SUNNY      9  -4  55 NW18      30.36R WCI -10
ROCHESTER/MAYO FAIR      10  -6  48 NW24G30   30.37S WCI -10
WINONA         SUNNY     14  -4  44 NW20G25   30.41R WCI  -3
AUSTIN         SUNNY      9  -2  61 NW17G28   30.40R WCI -10
ALBERT LEA     SUNNY     10  -4  52 NW15G26   30.41R WCI  -6
DODGE CENTER   SUNNY     10  -6  48 NW18G24   30.38R WCI  -8
PRESTON        SUNNY     10  -4  53 NW22G28   30.35R WCI -10
OWATONNA       SUNNY      9  -4  56 NW22G30     N/A  WCI -11
FARIBAULT      NOT AVBL
$$

...ELSEWHERE IN MINNESOTA...


CITY           SKY/WX    TMP DP  RH WIND       PRES   REMARKS
MINNEAPOLIS    SUNNY     10  -9  42 NW18G32   30.47R WCI  -8
INTNL FALLS    SUNNY     -4 -19  48 W14G25    30.46R WCI -24
DULUTH         MOSUNNY    1 -17  42 NW18G29   30.36R WCI -20
RED WING       NOT AVBL
REDWOOD FALLS  PTSUNNY    9  -3  58 NW17G25   30.53S WCI  -9
MANKATO        SUNNY     10  -4  52 NW21G26   30.47R WCI  -9
WORTHINGTON    SUNNY      7  -4  61 NW20      30.50R WCI -13
FAIRMONT       MOSUNNY    9  -2  61 NW24G30   30.46R WCI -12
$$

...SOUTHWEST WISCONSIN...


CITY           SKY/WX    TMP DP  RH WIND       PRES   REMARKS
LA CROSSE      SUNNY     13  -2  51 NW22      30.36R WCI  -6
PRAIRIE DU CHI SUNNY     16  -1  45 NW15G29   30.34R WCI   2
BOSCOBEL       SUNNY     19  -1  41 NW17G23   30.31R WCI   4
LONE ROCK      NOT AVBL
PLATTEVILLE    SUNNY     17   4  56 NW17      30.25S WCI   2
FORT MC COY    SUNNY     15  -3  44 NW15G24   30.31R WCI  -1
VIROQUA        FAIR      13  -2  50 NW17      30.26R WCI  -4
WIS DELLS      MOSUNNY   15  -6  39 NW20G30   30.22R WCI  -3
$$

...ELSEWHERE IN WISCONSIN...


CITY           SKY/WX    TMP DP  RH WIND       PRES   REMARKS
MILWAUKEE      MOSUNNY   18  -4  37 NW21G38   30.16R WCI   1
MADISON        MOSUNNY   16  -5  39 N20G30    30.21R WCI  -1
GREEN BAY      PTSUNNY   12  -5  46 NW22G35   30.17R WCI  -7
EAU CLAIRE     NOT AVBL
BLACK RVR FLS  FAIR      13 -10  34 NW18G26   30.33R WCI  -4
MEDFORD        MOSUNNY    6  -9  51 NW22G29   30.22R HAZE    WCI -15
WAUSAU         MOSUNNY    9 -10  42 NW13G24   30.21R WCI  -7
WIS RAPIDS     MOSUNNY   10  -8  44 NW18G30   30.26R WCI  -8
MARSHFIELD     SUNNY      8  -8  48 NW22G31   30.23R WCI -12
RICE LAKE      SUNNY      8 -13  38 NW12G20   30.38S WCI  -8
$$

...NORTHEAST IOWA...


CITY           SKY/WX    TMP DP  RH WIND       PRES   REMARKS
WATERLOO       SUNNY     14   1  56 NW24G35   30.39R WCI  -5
DUBUQUE        SUNNY     16   2  54 NW21G31   30.28R WCI  -1
DECORAH        SUNNY     12  -4  48 NW26G33   30.33R WCI  -8
MASON CITY     SUNNY     11   0  61 NW26      30.43R WCI -10
CHARLES CITY   SUNNY     12   0  57 NW20G29   30.40R WCI  -6
OELWEIN        MOSUNNY   12   1  62 NW26G35   30.36S HAZE    WCI  -8
$$

...ELSEWHERE IN IOWA...


CITY           SKY/WX    TMP DP  RH WIND       PRES   REMARKS
DES MOINES     MOSUNNY   18   2  49 NW21      30.48R WCI   1
IOWA CITY      SUNNY     20   3  48 NW23G31   30.39R WCI   3
FORT DODGE     SUNNY     14   1  57 N16G25    30.48R WCI  -2
MARSHALLTOWN   SUNNY     15   4  61 NW25      30.43R WCI  -4
CEDAR RAPIDS   SUNNY     18   5  57 NW24G35   30.36R WCI   0
$$

...NORTHERN ILLINOIS...


CITY           SKY/WX    TMP DP  RH WIND       PRES   REMARKS
CHICAGO-OHARE  PTSUNNY   22   3  44 NW25G33   30.16R WCI   5
CHICAGO-MIDWAY PTSUNNY   24   3  40 NW25G31   30.17R WCI   8
MOLINE         SUNNY     23   1  38 NW28G39   30.31R WCI   6
ROCKFORD       PTSUNNY   22   2  42 NW23G35   30.23R WCI   6
PEORIA         SUNNY     28   5  37 NW14G26   30.27R WCI  17
$$

NOTE: "FAIR" INDICATES FEW OR NO CLOUDS BELOW 12,000 FEET WITH NO
SIGNIFICANT WEATHER AND/OR OBSTRUCTIONS TO VISIBILITY. WIND
SPEEDS ARE IN MILES-PER-HOUR.




USA.gov is the U.S. government's official web portal to all federal, state and local government web resources and services.